TimeEST,TemperatureF,Dew PointF,Humidity,Sea Level PressureIn,VisibilityMPH,Wind Direction,Wind SpeedMPH,Gust SpeedMPH,PrecipitationIn,Events,Conditions,WindDirDegrees,DateUTC
12:53 AM,32.0,24.1,73,30.00,10.0,West,11.5,26.5,N/A,,Mostly Cloudy,280,2003-12-30 05:53:00
1:53 AM,32.0,24.1,73,30.04,10.0,West,15.0,23.0,N/A,,Clear,270,2003-12-30 06:53:00
2:53 AM,30.9,25.0,79,30.07,10.0,West,10.4,-,N/A,,Clear,270,2003-12-30 07:53:00
3:53 AM,30.0,25.0,82,30.11,10.0,WSW,6.9,-,N/A,,Clear,250,2003-12-30 08:53:00
4:53 AM,30.0,25.0,82,30.15,10.0,WSW,9.2,-,N/A,,Clear,240,2003-12-30 09:53:00
5:53 AM,28.9,25.0,85,30.17,10.0,WSW,6.9,-,N/A,,Clear,240,2003-12-30 10:53:00
6:53 AM,28.0,25.0,88,30.19,10.0,WSW,5.8,-,N/A,,Clear,250,2003-12-30 11:53:00
7:53 AM,28.0,25.0,88,30.21,10.0,WSW,3.5,-,N/A,,Clear,250,2003-12-30 12:53:00
8:53 AM,28.0,26.1,92,30.22,9.0,Calm,Calm,-,N/A,,Clear,0,2003-12-30 13:53:00
9:53 AM,32.0,28.0,85,30.26,10.0,SW,8.1,-,N/A,,Clear,220,2003-12-30 14:53:00
10:53 AM,35.1,30.0,82,30.28,10.0,SW,6.9,-,N/A,,Clear,230,2003-12-30 15:53:00
11:53 AM,37.9,30.9,76,30.28,10.0,SW,10.4,-,N/A,,Clear,220,2003-12-30 16:53:00
12:53 PM,41.0,30.9,67,30.26,10.0,SW,11.5,-,N/A,,Clear,220,2003-12-30 17:53:00
1:53 PM,43.0,28.0,56,30.25,10.0,SW,13.8,19.6,N/A,,Clear,230,2003-12-30 18:53:00
2:53 PM,45.0,27.0,49,30.24,10.0,SSW,11.5,-,N/A,,Clear,210,2003-12-30 19:53:00
3:53 PM,45.0,28.0,52,30.26,10.0,SW,9.2,-,N/A,,Clear,230,2003-12-30 20:53:00
4:53 PM,44.1,28.0,53,30.26,10.0,SSW,6.9,-,N/A,,Clear,200,2003-12-30 21:53:00
5:53 PM,39.9,27.0,60,30.27,10.0,South,5.8,-,N/A,,Clear,170,2003-12-30 22:53:00
6:53 PM,37.0,28.9,73,30.28,10.0,South,6.9,-,N/A,,Clear,180,2003-12-30 23:53:00
7:53 PM,37.0,28.0,70,30.27,10.0,South,8.1,-,N/A,,Clear,180,2003-12-31 00:53:00
8:53 PM,36.0,28.0,73,30.27,10.0,South,8.1,-,N/A,,Clear,170,2003-12-31 01:53:00
9:53 PM,35.1,28.0,76,30.26,10.0,SE,8.1,-,N/A,,Clear,140,2003-12-31 02:53:00
10:53 PM,34.0,27.0,75,30.25,10.0,SSE,9.2,-,N/A,,Clear,150,2003-12-31 03:53:00
11:53 PM,33.1,27.0,78,30.24,10.0,SSE,8.1,-,N/A,,Clear,150,2003-12-31 04:53:00